Find Local Weather

World > North America > United States > North Dakota

Golva, North Dakota Regional Weather

Lat: 46.73N, Lon: 103.99W
Wx Zone: NDZ031
Feedback

Golva, ND Regional Weather

Expires:201905270900;;533951
ASUS43 KBIS 270831
RWRND 
NORTH DAKOTA REGIONAL WEATHER ROUNDUP
NATIONAL WEATHER SERVICE EASTERN NORTH DAKOTA/GRAND FORKS ND
300 AM CDT MON MAY 27 2019

  NOTE: "FAIR" INDICATES FEW OR NO CLOUDS BELOW 12,000 FEET WITH NO
  SIGNIFICANT WEATHER AND/OR OBSTRUCTIONS TO VISIBILITY.


NDZ018>021-031>035-040>046-270900-
...SOUTHWEST NORTH DAKOTA...
  
CITY           SKY/WX    TMP DP  RH WIND       PRES   REMARKS
BISMARCK       CLOUDY    47  45  93 E15G21    30.02F                  
DICKINSON      FOG       45  44  97 NE16      30.00S VSB 1/4          
GARRISON         N/A     42  38  85 E12G21    30.06F                  
HETTINGER      CLOUDY    50  49  96 NE17      29.95F                  
$$


SKY/WX - Weather  TMP - Temperature  DP - Dew Point  RH - Relative Humidity
WIND - Wind Direction/Speed PRES - Barometric Pressure VSB - Visibility
WCI - Wind Chill Index E13G22 Wind - East Wind 13 mph/Gusts of 22 mph